Location: Freemans Gardens
(41.6414°N, 83.6077°W)
Time: 02:59:51
(UTC+00:00)

ERS-2 - Pass Details

Date: 29 October 2020
Orbit: 493 x 497 km, 98.6° (Epoch: 26 November)

Event Time Altitude Azimuth Distance (km) Brightness Sun altitude
Rises 23:31:04 0° 7° (N) 2,585 5.6 -11.5°
Reaches altitude 10° 23:33:12 10° 1° (N) 1,698 4.7 -11.9°
Maximum altitude 23:36:41 44° 288° (WNW) 690 3.3 -12.6°
Drops below altitude 10° 23:40:09 10° 215° (SW) 1,686 5.4 -13.2°
Sets 23:42:16 0° 209° (SSW) 2,565 6.3 -13.6°
